Regional Weather Roundup
Issued by NWS Cleveland, OH

Home | Current Version | Previous Version | Text Only | Print | Product List | Glossary Off
Versions: 1 2 3 4 5 6 7 8 9 10 11 12 13 14 15 16 17 18 19 20 21 22 23 24 25 26 27 28 29 30 31 32 33 34 35 36 37 38 39 40 41 42 43 44 45 46 47 48 49 50

000
ASUS41 KCLE 210610
RWRCLE
OHIO REGIONAL WEATHER ROUNDUP
NATIONAL WEATHER SERVICE CLEVELAND, OH
100 AM EST SUN DEC 21 2014

NOTE: "FAIR" INDICATES FEW OR NO CLOUDS BELOW 12,000 FEET WITH NO
SIGNIFICANT WEATHER AND/OR OBSTRUCTIONS TO VISIBILITY.

OHZ001>008-015>018-024>027-034-035-043-044-210700-
   NORTHWEST OHIO

CITY           SKY/WX    TMP DP  RH WIND       PRES   REMARKS
DEFIANCE       PTCLDY    22  19  89 CALM      30.29S FOG
FINDLAY        CLEAR     26  22  84 CALM      30.27S FOG
TOLEDO EXPRESS CLEAR     24  21  88 CALM      30.28S
TOLEDO EXEC    CLOUDY    30  24  78 CALM      30.29S
LIMA           MOCLDY    31  25  78 SW5       30.27S HAZE    WCI  26
$$

OHZ009>014-019>023-028>033-038-089-210700-
   NORTHEAST OHIO

CITY           SKY/WX    TMP DP  RH WIND       PRES   REMARKS
CLE-HOPKINS    CLOUDY    29  21  72 SW5       30.29F WCI  24
CLE-LAKEFRONT  CLOUDY    31  23  72 SW6       30.27F WCI  25
CUY CO. ARPT   NOT AVBL
LORAIN-ELYRIA  CLOUDY    26  23  88 CALM      30.28S FOG
ASHTABULA      CLOUDY    30  24  78 CALM      30.26F
AKRON-CANTON   PTCLDY    26  21  81 CALM      30.24F
WOOSTER        CLOUDY    26  23  88 CALM      30.26S
MANSFIELD      CLOUDY    28  24  85 CALM      30.25S
YOUNGSTOWN     CLOUDY    28  22  78 CALM      30.24F
$$

OHZ042-051>053-060>062-070>072-077>081-210700-
  SOUTHWEST OHIO

CITY           SKY/WX    TMP DP  RH WIND       PRES   REMARKS
CINC-COVINGTON CLOUDY    32  22  66 CALM      30.28F
CINC-LUNKEN    CLOUDY    31  27  85 CALM      30.32F
HAMILTON       CLEAR     19  17  92 CALM      30.32S FOG
DAYTON         MOCLDY    28  23  81 CALM      30.29S
WRIGHT-PAT AFB CLOUDY    29  25  85 CALM      30.29F
DAYTON GENERAL MOCLDY    24  23  96 CALM      30.28S FOG
WILMINGTON     CLEAR     24  20  84 CALM      30.28S FOG
$$

OHZ036-037-039>041-045>050-054>059-063>069-073>076-082>088-210700-
  CENTRAL AND SOUTHEAST OHIO

CITY           SKY/WX    TMP DP  RH WIND       PRES   REMARKS
COLUMBUS       CLOUDY    30  24  78 CALM      30.28S
OSU AIRPORT    CLOUDY    29  24  82 CALM      30.28S
BOLTON FIELD   CLOUDY    27  26  96 MISG      30.29S FOG
RICKENBACK AFB CLOUDY    29  27  92 CALM      30.28S FOG
NEWARK         CLOUDY    30  26  85 W3        30.27S FOG
MARION         CLOUDY    28  25  88 S6        30.27S FOG     WCI  22
LANCASTER      CLOUDY    38  26  62 CALM      30.28S HAZE
ZANESVILLE     CLOUDY    29  23  78 CALM      30.27S
NEW PHILLY     CLOUDY    30  23  75 CALM      30.28S
$$



USA.gov is the U.S. government's official web portal to all federal, state and local government web resources and services.